Boscobel, WI

2:56 PM CDT on June 27, 2017 (GMT -0500)
Boscobel

Weather History for KOVS - January, 2014

Change the Weather History Date:

Friday, January 17, 2014

  Actual Average (KPDC) Record (KPDC)
Temperature  
Mean Temperature 10 °F -  
Max Temperature 19 °F 27 °F 49 °F (1974)
Min Temperature 0 °F 8 °F -29 °F (1977)
Degree Days  
Heating Degree Days 56    
Moisture  
Dew Point 3 °F    
Average Humidity 68    
Maximum Humidity 83    
Minimum Humidity 55    
Precipitation  
Precipitation 0.00 in - - ()
Sea Level Pressure  
Sea Level Pressure 29.94 in    
Wind  
Wind Speed 6 mph (West)    
Max Wind Speed 16 mph    
Max Gust Speed 21 mph    
Visibility 8 miles    
Events Snow    
Averages and records for this station are not official NWS values.
T = Trace of Precipitation, MM = Missing Value Source: NWS Daily Summary

Daily Weather History Graph

Daily Weather History Graph

Search for Another Location

Airport or City:

Trip Planner

Search our weather history database for the weather conditions in past years. The results will help you decide how hot, cold, wet, or windy it might be!

Date:

Astronomy

Jan. 17, 2014 Rise Set
Actual Time 7:30 AM CST 4:55 PM CST
Civil Twilight 6:59 AM CST 5:26 PM CST
Nautical Twilight 6:24 AM CST 6:01 PM CST
Astronomical Twilight 5:50 AM CST 6:35 PM CST
Moon 6:46 PM CST (1/17) 7:54 AM CST (1/17)
Length of Visible Light 10h 27m
Length of Day
9h 25m
Full, 98% of the Moon is Illuminated
Jan 17
Full
Jan 23
Last Quarter
Jan 30
New
Feb 6
First Quarter
Feb 14
Full

Hourly Weather History & Observations

Time (CST) Temp. Windchill Dew Point Humidity Pressure Visibility Wind Dir Wind Speed Gust Speed Precip Events Conditions
12:53 AM 10.9 °F 1.4 °F -0.0 °F 61% 29.82 in 10.0 mi West 5.8 mph - N/A   Overcast
1:53 AM 10.9 °F 0.2 °F 1.9 °F 67% 29.84 in 10.0 mi West 6.9 mph - N/A   Overcast
2:53 AM 10.0 °F -2.9 °F -0.0 °F 64% 29.86 in 10.0 mi WNW 9.2 mph - 0.00 in   Overcast
3:53 AM 10.0 °F 0.4 °F -0.0 °F 64% 29.87 in 10.0 mi West 5.8 mph - N/A   Overcast
4:53 AM 10.0 °F 1.8 °F 1.0 °F 67% 29.87 in 10.0 mi WSW 4.6 mph - 0.00 in Snow Light Snow
5:53 AM 10.9 °F 2.9 °F 3.0 °F 70% 29.88 in 5.0 mi WSW 4.6 mph - 0.00 in Snow Light Snow
7:53 AM 12.0 °F 4.1 °F 5.0 °F 73% 29.91 in 3.0 mi West 4.6 mph - 0.00 in Snow Light Snow
8:17 AM 12.0 °F 4.1 °F 5.0 °F 73% 29.87 in 1.8 mi Variable 4.6 mph - 0.00 in Snow Light Snow
8:32 AM 12.9 °F 2.6 °F 6.1 °F 74% 29.88 in 2.5 mi Variable 6.9 mph - 0.00 in Snow Light Snow
8:41 AM 12.9 °F 2.6 °F 6.1 °F 74% 29.89 in 3.0 mi West 6.9 mph - 0.00 in Snow Light Snow
8:53 AM 12.9 °F 6.9 °F 6.1 °F 74% 29.93 in 4.0 mi West 3.5 mph - 0.00 in Snow Light Snow
9:53 AM 15.1 °F 4.2 °F 6.1 °F 68% 29.95 in 2.5 mi NNW 8.1 mph - 0.00 in Snow Light Snow
10:04 AM 15.1 °F 3.3 °F 6.1 °F 68% 29.91 in 4.0 mi WNW 9.2 mph - 0.00 in Snow Light Snow
10:53 AM 16.0 °F 0.6 °F 5.0 °F 62% 29.96 in 10.0 mi NW 16.1 mph 20.7 mph 0.00 in   Overcast
11:53 AM 18.0 °F 8.7 °F 6.1 °F 60% 29.96 in 10.0 mi Variable 6.9 mph 18.4 mph 0.00 in   Mostly Cloudy
12:53 PM 19.0 °F 9.0 °F 7.0 °F 59% 29.95 in 10.0 mi North 8.1 mph - 0.00 in   Overcast
1:53 PM 19.9 °F 9.3 °F 7.0 °F 57% 29.95 in 10.0 mi NW 9.2 mph - 0.00 in   Mostly Cloudy
2:53 PM 19.9 °F 9.3 °F 6.1 °F 55% 29.97 in 10.0 mi WNW 9.2 mph - 0.00 in   Partly Cloudy
3:53 PM 19.0 °F 13.9 °F 6.1 °F 57% 29.99 in 10.0 mi WNW 3.5 mph - 0.00 in   Clear
4:53 PM 16.0 °F 7.4 °F 3.9 °F 59% 30.01 in 10.0 mi West 5.8 mph - N/A   Overcast
5:53 PM 12.9 °F 5.2 °F 1.9 °F 62% 30.03 in 10.0 mi WSW 4.6 mph - N/A   Clear
6:53 PM 10.9 °F 2.9 °F 1.9 °F 67% 30.04 in 10.0 mi WSW 4.6 mph - N/A   Clear
7:53 PM 8.1 °F -2.0 °F -0.0 °F 70% 30.05 in 10.0 mi SW 5.8 mph - N/A   Clear
8:53 PM 3.9 °F -8.2 °F -2.0 °F 76% 30.05 in 10.0 mi SW 6.9 mph - N/A   Clear
9:53 PM 3.9 °F -3.4 °F -0.9 °F 80% 30.04 in 10.0 mi SW 3.5 mph - N/A   Clear
10:53 PM -0.0 °F - -4.0 °F 83% 30.01 in 9.0 mi Calm Calm - N/A   Clear
11:53 PM -0.0 °F - -4.0 °F 83% 29.98 in 10.0 mi Calm Calm - N/A   Clear